Find Equator-S

NORAD ID: 25068 Int'l Des: 1997-075 Owner: MPE Country: D operational
MEOELLIPTICALHEO_ELLIPTICAL

現在のビュー

3D地球を読み込み中...

Equator-Sについて

説明を読み込み中...

次回通過

Passes for default location (London). Set your location on the main map for personalized predictions.

高度履歴

Loading altitude history...

軌道要素

1 25068U 97075B 26148.70316355 -.00000320 00000-0 11009-2 0 9999
2 25068 4.3201 253.1319 8273752 345.4651 0.8120 1.07778070112258
Epoch: May 28, 2026 • Age: 39 hours

現在のステータス

高度 51792.1 km
速度 1.95 km/s
衛星直下点 -0.38°S, 66.06°E
打ち上げ日 Dec 2, 1997
運用期間 28.4 years
タイプ other

技術仕様

分類 Payload
質量 197.00 kg
乾燥質量 197.00 kg
総質量 230.00 kg
長さ 1.30 m
直径 1.50 m
スパン 5.00 m
形状 Cyl + 2 Ant
製造者 MPE
バスタイプ Equator-S
フェーズステータス In Orbit
所有者/国 MPE/D

Most Searched